Meteo Giornale » Osservazioni meteo Stati Uniti (USA) » Grayling
ore: 14:55 - Osservazioni Meteo Grayling
Lat. 44° 40' N Lon. 84° 43' W Alt. 353 metri s.l.m.
27 °C
Molto Nuvoloso
Temp. 24 Ore
19 °C
27 °C
Sud-Ovest
9.3 Km/h
Dew point 21 °C
Umidità 69 %
Visibilità 10 Km
Il sole sorge alle ore 07:00
Il sole tramonta alle ore 20:17
| Data e Ora | Cielo e Fenomeni | T °C | DP °C | Um. % | Pres. hPa | Vis. km | Vento km/h | |
|---|---|---|---|---|---|---|---|---|
| Oggi h: 14:55 | Molto Nuvoloso | 27 | 21 | 69 | 1012 | 10 | SO 9.3 | |
| Oggi h: 13:55 | Molto Nuvoloso | 26 | 20 | 69 | 1012 | 10 | S 16.7 | |
| Oggi h: 12:55 | Coperto | 23 | 21 | 88 | 1013 | 10 | S/SO 20.3 | |
| Oggi h: 11:55 | Temporale nelle vicinanze | 21 | 20 | 94 | 1014 | 13 | S/SO 16.7 | |
| Oggi h: 11:53 | Temporale nelle vicinanze | 21 | 20 | 94 | 1014 | 11 | S 14.8 | |
| Oggi h: 11:42 | Pioggia | 21 | 20 | 94 | 1015 | 13 | S 13 | |
| Oggi h: 11:31 | Temporale | 21 | 20 | 94 | 1015 | 8 | S/SO 13 | |
| Oggi h: 11:26 | Molto Nuvoloso | 21 | 20 | 94 | 1015 | 8 | S/SO 13 | |
| Oggi h: 11:24 | Pioggia Foschia | 21 | 20 | 94 | 1015 | 10 | S/SO 14.8 | |
| Oggi h: 11:22 | Coperto | 21 | 20 | 94 | 1015 | 10 | S/SO 16.7 | |
| Oggi h: 11:12 | Temporale | 22 | 21 | 94 | 1016 | 6 | SO 9.3 | |
| Oggi h: 11:10 | Coperto | 22 | 21 | 94 | 1016 | 8 | S/SO 9.3 | |
| Oggi h: 11:03 | Temporale nelle vicinanze Pioggia | 22 | 21 | 94 | 1015 | 14 | S 11.1 | |
| Oggi h: 10:55 | Temporale nelle vicinanze | 22 | 21 | 94 | 1016 | 11 | SO 7.4 | |
| Oggi h: 10:51 | Temporale nelle vicinanze Foschia | 22 | 21 | 94 | 1015 | 10 | S 7.4 | |
| Oggi h: 10:50 | Temporale Foschia | 22 | 21 | 94 | 1015 | 8 | S 9.3 | |
| Oggi h: 10:37 | Temporale Pioggia | 21 | 21 | 100 | 1015 | 14 | N 5.5 | |
| Oggi h: 10:35 | Temporale | 22 | 21 | 94 | 1015 | 13 | N 5.5 | |
| Oggi h: 10:30 | Temporale Pioggia | 22 | 21 | 94 | 1016 | 10 | N 5.5 | |
| Oggi h: 10:05 | Pioggia Foschia | 20 | 20 | 100 | 1016 | 10 | N 5.5 | |
| Oggi h: 09:55 | Temporale nelle vicinanze Pioggia | 20 | 20 | 100 | 1016 | 6 | SO 7.4 | |
| Oggi h: 09:50 | Temporale nelle vicinanze Pioggia | 20 | 20 | 100 | 1016 | 5 | SO 9.3 | |
| Oggi h: 09:45 | Pioggia Foschia | 20 | 20 | 100 | 1016 | 2 | O/SO 9.3 | |
| Oggi h: 09:40 | Pioggia Foschia | 20 | 20 | 100 | 1016 | 11 | SO 7.4 | |
| Oggi h: 09:35 | Pioggia Foschia | 20 | 20 | 100 | 1016 | 2 | N 5.5 | |
| Oggi h: 08:55 | Pioggia Foschia | 20 | 20 | 100 | 1015 | 8 | N 5.5 | |
| Oggi h: 07:55 | Pioggia Foschia | 20 | 20 | 100 | 1014 | 8 | N 5.5 | |
| Oggi h: 07:52 | Pioggia Foschia | 20 | 20 | 100 | 1014 | 8 | N 0 | |
| Oggi h: 07:18 | Foschia | 20 | 20 | 100 | 1014 | 5 | N 5.5 | |
| Oggi h: 07:05 | Pioggia Foschia | 19 | 19 | 100 | 1014 | 2 | SE 7.4 | |
| Oggi h: 06:55 | Pioviggine Foschia | 19 | 19 | 100 | 1015 | 2 | N 0 | |
| Oggi h: 06:53 | Pioviggine Foschia | 19 | 19 | 100 | 1015 | 3 | N 0 | |
| Oggi h: 06:48 | Pioggia Foschia | 20 | 20 | 100 | 1015 | 5 | N 0 | |
| Oggi h: 06:43 | Pioggia Foschia | 20 | 19 | 93 | 1015 | 5 | N 0 | |
| Oggi h: 06:38 | Pioggia Foschia | 20 | 20 | 100 | 1015 | 5 | N 0 | |
| Oggi h: 06:33 | Pioggia Foschia | 20 | 20 | 100 | 1015 | 5 | N 0 | |
| Oggi h: 06:28 | Pioggia Foschia | 20 | 20 | 100 | 1015 | 5 | N 0 | |
| Oggi h: 06:23 | Pioggia Foschia | 20 | 20 | 100 | 1015 | 2 | N 0 | |
| Oggi h: 06:18 | Pioggia Foschia | 20 | 20 | 100 | 1015 | 6 | N 0 | |
| Oggi h: 06:15 | Foschia | 20 | 20 | 100 | 1015 | 6 | N 0 | |
| Oggi h: 06:05 | Foschia | 20 | 20 | 100 | 1015 | 2 | N 5.5 | |
| Oggi h: 05:55 | Foschia | 20 | 20 | 100 | 1015 | 2 | N 0 | |
| Oggi h: 05:51 | Foschia | 20 | 19 | 93 | 1015 | 5 | N 0 | |
| Oggi h: 05:46 | Foschia | 20 | 20 | 100 | 1015 | 2 | N 0 | |
| Oggi h: 05:36 | Foschia | 20 | 20 | 100 | 1015 | 5 | N 0 | |
| Oggi h: 05:31 | Foschia | 20 | 20 | 100 | 1015 | 2 | N 0 | |
| Oggi h: 05:11 | Foschia | 20 | 20 | 100 | 1015 | 8 | N 0 | |
| Oggi h: 05:05 | Pioggia Foschia | 20 | 20 | 100 | 1015 | 8 | N 0 | |
| Oggi h: 05:00 | Temporale nelle vicinanze Foschia | 20 | 20 | 100 | 1015 | 10 | N 0 | |
| Oggi h: 04:55 | Temporale nelle vicinanze Pioggia | 20 | 20 | 100 | 1015 | 6 | N 0 | |
| Oggi h: 04:51 | Temporale nelle vicinanze Pioggia | 20 | 20 | 100 | 1015 | 5 | N 5.5 | |
| Oggi h: 04:42 | Temporale Pioggia | 20 | 20 | 100 | 1015 | 5 | N 5.5 | |
| Oggi h: 04:37 | Temporale Pioggia | 20 | 20 | 100 | 1015 | 2 | S/SE 7.4 | |
| Oggi h: 04:32 | Temporale Pioggia | 20 | 20 | 100 | 1015 | 11 | S/SE 7.4 | |
| Oggi h: 04:27 | Temporale Pioggia | 20 | 20 | 100 | 1015 | 2 | N 0 | |
| Oggi h: 04:22 | Temporale Pioggia | 20 | 20 | 100 | 1016 | 8 | NO 9.3 | |
| Oggi h: 04:08 | Temporale | 20 | 20 | 100 | 1015 | 11 | N 0 | |
| Oggi h: 03:55 | Temporale nelle vicinanze | 20 | 20 | 100 | 1015 | 11 | N 5.5 | |
| Oggi h: 03:50 | Foschia | 20 | 20 | 100 | 1015 | 10 | N 0 | |
| Oggi h: 03:30 | Molto Nuvoloso | 20 | 20 | 100 | 1015 | 13 | N 0 | |
| Oggi h: 03:25 | Molto Nuvoloso | 20 | 20 | 100 | 1015 | 11 | N 0 | |
| Oggi h: 03:20 | Molto Nuvoloso | 20 | 20 | 100 | 1014 | 11 | N 5.5 | |
| Oggi h: 03:10 | Foschia | 20 | 20 | 100 | 1014 | 10 | N 5.5 | |
| Oggi h: 02:55 | Coperto | 20 | 20 | 100 | 1015 | 11 | N 0 | |
| Oggi h: 02:35 | Coperto | 20 | 20 | 100 | 1015 | 11 | N 0 | |
| Oggi h: 01:55 | Foschia | 20 | 20 | 100 | 1015 | 8 | N 0 | |
| Oggi h: 00:55 | Foschia | 20 | 20 | 100 | 1015 | 10 | N 5.5 | |
| Ieri h: 23:55 | Coperto | 20 | 20 | 100 | 1015 | 11 | E 7.4 | |
| Ieri h: 22:55 | Coperto | 20 | 20 | 100 | 1015 | 13 | E 7.4 | |
| Ieri h: 22:40 | Coperto | 20 | 20 | 100 | 1015 | 14 | E 9.3 | |
| Ieri h: 21:55 | Coperto | 20 | 20 | 100 | 1015 | 14 | E 7.4 | |
| Ieri h: 20:55 | Coperto | 20 | 20 | 100 | 1015 | 10 | E 7.4 | |
| Ieri h: 20:15 | Coperto | 21 | 20 | 94 | 1015 | 10 | SE 13 | |
| Ieri h: 19:55 | Coperto | 21 | 20 | 94 | 1015 | 10 | E/SE 13 | |
| Ieri h: 19:51 | Coperto | 21 | 20 | 94 | 1015 | 14 | E/SE 13 | |
| Ieri h: 19:31 | Coperto | 21 | 20 | 94 | 1015 | 11 | SE 11.1 | |
| Ieri h: 19:01 | Foschia | 21 | 20 | 94 | 1015 | 10 | E/SE 13 | |
| Ieri h: 18:55 | Pioggia Foschia | 21 | 20 | 94 | 1015 | 8 | E 13 | |
| Ieri h: 18:00 | Pioggia | 22 | 20 | 88 | 1015 | 11 | E 9.3 | |
| Ieri h: 17:55 | Pioggia | 22 | 20 | 88 | 1015 | 13 | E 9.3 | |
| Ieri h: 17:53 | Pioggia | 22 | 20 | 88 | 1015 | 13 | E 7.4 | |
| Ieri h: 17:50 | Coperto | 22 | 20 | 88 | 1015 | 13 | E 7.4 | |
| Ieri h: 17:45 | Coperto | 22 | 20 | 88 | 1015 | 13 | E 7.4 | |
| Ieri h: 16:55 | Coperto | 22 | 20 | 88 | 1015 | 14 | SE 11.1 | |
| Ieri h: 15:55 | Coperto | 22 | 20 | 88 | 1015 | 14 | N 5.5 | |



